Horseshoe Bay, TX

9:34 PM MDT on May 27, 2017 (GMT -0600)
Horseshoe Bay

Weather History for KDZB - November, 2012

Change the Weather History Date:

Sunday, November 4, 2012

  Actual Average (KBMQ) Record (KBMQ)
Temperature  
Mean Temperature 66 °F -  
Max Temperature 77 °F 68 °F 81 °F (2007)
Min Temperature 55 °F 49 °F 32 °F (2011)
Cooling Degree Days 1    
Growing Degree Days 16 (Base 50)    
Moisture  
Dew Point 55 °F    
Average Humidity 74    
Maximum Humidity 100    
Minimum Humidity 41    
Precipitation  
Precipitation 0.00 in - - ()
Sea Level Pressure  
Sea Level Pressure 30.09 in    
Wind  
Wind Speed - (North)    
Max Wind Speed -    
Max Gust Speed -    
Visibility 10 miles    
Events      
Averages and records for this station are not official NWS values.
T = Trace of Precipitation, MM = Missing Value Source: NWS Daily Summary

Daily Weather History Graph

Daily Weather History Graph

Search for Another Location

Airport or City:

Trip Planner

Search our weather history database for the weather conditions in past years. The results will help you decide how hot, cold, wet, or windy it might be!

Date:

Astronomy

Nov. 04, 2012 Rise Set
Actual Time 5:50 AM MST 4:42 PM MST
Civil Twilight 5:25 AM MST 5:07 PM MST
Nautical Twilight 4:57 AM MST 5:36 PM MST
Astronomical Twilight 4:28 AM MST 6:04 PM MST
Moon 9:25 PM MST (11/4) 10:31 AM MST (11/4)
Length of Visible Light 11h 42m
Length of Day
10h 52m
Waning Gibbous, 71% of the Moon is Illuminated
Nov 4
Waning Gibbous
Nov 6
Last Quarter
Nov 13
New
Nov 20
First Quarter
Nov 28
Full

Hourly Weather History & Observations

Time (MST) Temp. Dew Point Humidity Pressure Visibility Wind Dir Wind Speed Gust Speed Precip Events Conditions
12:15 AM 59.0 °F 55.4 °F 88% 30.09 in 10.0 mi North - - N/A   Clear
12:35 AM 60.8 °F 59.0 °F 94% 30.08 in 10.0 mi North - - N/A   Clear
12:55 AM 62.6 °F 59.0 °F 88% 30.09 in 10.0 mi North - - N/A   Clear
1:15 AM 62.6 °F 57.2 °F 82% 30.10 in 10.0 mi North - - N/A   Clear
1:35 AM 62.6 °F 57.2 °F 82% 30.10 in 10.0 mi North - - N/A   Clear
1:55 AM 60.8 °F 57.2 °F 88% 30.10 in 10.0 mi North - - N/A   Scattered Clouds
1:15 AM 60.8 °F 59.0 °F 94% 30.08 in 10.0 mi North - - N/A   Scattered Clouds
1:35 AM 59.0 °F 59.0 °F 100% 30.07 in 10.0 mi North - - N/A   Clear
1:55 AM 59.0 °F 59.0 °F 100% 30.06 in 10.0 mi North - - N/A   Clear
2:15 AM 59.0 °F 59.0 °F 100% 30.06 in 10.0 mi North - - N/A   Clear
2:35 AM 59.0 °F 59.0 °F 100% 30.05 in 10.0 mi North - - N/A   Clear
2:55 AM 57.2 °F 57.2 °F 100% 30.06 in 10.0 mi North - - N/A   Clear
3:15 AM 55.4 °F 55.4 °F 100% 30.06 in 10.0 mi North - - N/A   Clear
3:35 AM 55.4 °F 55.4 °F 100% 30.07 in 10.0 mi North - - N/A   Clear
3:55 AM 57.2 °F 57.2 °F 100% 30.08 in 10.0 mi North - - N/A   Clear
4:15 AM 59.0 °F 59.0 °F 100% 30.09 in 10.0 mi North - - N/A   Scattered Clouds
4:35 AM 59.0 °F 59.0 °F 100% 30.10 in 10.0 mi North - - N/A   Scattered Clouds
4:55 AM 59.0 °F 59.0 °F 100% 30.09 in 10.0 mi North - - N/A   Clear
5:15 AM 57.2 °F 57.2 °F 100% 30.10 in 10.0 mi North - - N/A   Clear
5:35 AM 55.4 °F 55.4 °F 100% 30.11 in 10.0 mi North - - N/A   Clear
5:55 AM 55.4 °F 55.4 °F 100% 30.12 in 10.0 mi North - - N/A   Clear
6:15 AM 55.4 °F 53.6 °F 94% 30.12 in 10.0 mi North - - N/A   Clear
6:35 AM 57.2 °F 53.6 °F 88% 30.12 in 10.0 mi North - - N/A   Clear
6:55 AM 59.0 °F 53.6 °F 82% 30.13 in 10.0 mi North - - N/A   Clear
7:15 AM 60.8 °F 53.6 °F 77% 30.14 in 10.0 mi North - - N/A   Clear
7:35 AM 60.8 °F 53.6 °F 77% 30.14 in 10.0 mi North - - N/A   Clear
7:55 AM 62.6 °F 51.8 °F 68% 30.14 in 10.0 mi North - - N/A   Clear
8:15 AM 62.6 °F 51.8 °F 68% 30.14 in 10.0 mi North - - N/A   Clear
8:35 AM 62.6 °F 53.6 °F 72% 30.15 in 10.0 mi North - - N/A   Clear
8:55 AM 64.4 °F 53.6 °F 68% 30.15 in 10.0 mi North - - N/A   Clear
9:15 AM 66.2 °F 53.6 °F 64% 30.15 in 10.0 mi North - - N/A   Clear
9:35 AM 68.0 °F 53.6 °F 60% 30.15 in 10.0 mi North - - N/A   Clear
9:55 AM 68.0 °F 53.6 °F 60% 30.15 in 10.0 mi North - - N/A   Clear
10:15 AM 68.0 °F 55.4 °F 64% 30.14 in 10.0 mi North - - N/A   Clear
10:35 AM 69.8 °F 55.4 °F 60% 30.13 in 10.0 mi North - - N/A   Clear
10:55 AM 69.8 °F 55.4 °F 60% 30.13 in 10.0 mi North - - N/A   Clear
11:15 AM 71.6 °F 55.4 °F 57% 30.12 in 10.0 mi North - - N/A   Clear
11:35 AM 71.6 °F 55.4 °F 57% 30.11 in 10.0 mi North - - N/A   Clear
11:55 AM 73.4 °F 55.4 °F 53% 30.10 in 10.0 mi North - - N/A   Clear
12:15 PM 73.4 °F 55.4 °F 53% 30.09 in 10.0 mi North - - N/A   Clear
12:35 PM 73.4 °F 55.4 °F 53% 30.08 in 10.0 mi North - - N/A   Clear
12:55 PM 75.2 °F 55.4 °F 50% 30.07 in 10.0 mi North - - N/A   Clear
1:15 PM 77.0 °F 55.4 °F 47% 30.06 in 10.0 mi North - - N/A   Clear
1:35 PM 77.0 °F 55.4 °F 47% 30.06 in 10.0 mi North - - N/A   Clear
1:55 PM 77.0 °F 53.6 °F 44% 30.06 in 10.0 mi North - - N/A   Clear
2:15 PM 77.0 °F 53.6 °F 44% 30.06 in 10.0 mi North - - N/A   Clear
2:35 PM 77.0 °F 53.6 °F 44% 30.06 in 10.0 mi North - - N/A   Clear
2:55 PM 77.0 °F 51.8 °F 41% 30.05 in 10.0 mi North - - N/A   Clear
3:15 PM 77.0 °F 51.8 °F 41% 30.05 in 10.0 mi North - - N/A   Clear
3:35 PM 77.0 °F 51.8 °F 41% 30.06 in 7.0 mi North - - N/A   Clear
3:55 PM 77.0 °F 53.6 °F 44% 30.06 in 10.0 mi North - - N/A   Clear
4:15 PM 75.2 °F 53.6 °F 47% 30.06 in 10.0 mi North - - N/A   Clear
4:35 PM 71.6 °F 55.4 °F 57% 30.06 in 10.0 mi North - - N/A   Clear
4:55 PM 68.0 °F 55.4 °F 64% 30.06 in 10.0 mi North - - N/A   Clear
5:15 PM 64.4 °F 55.4 °F 73% 30.07 in 10.0 mi North - - N/A   Clear
5:35 PM 62.6 °F 55.4 °F 77% 30.07 in 10.0 mi North - - N/A   Clear
5:55 PM 62.6 °F 53.6 °F 72% 30.07 in 10.0 mi North - - N/A   Clear
6:15 PM 60.8 °F 53.6 °F 77% 30.08 in 10.0 mi North - - N/A   Clear
6:35 PM 60.8 °F 53.6 °F 77% 30.08 in 10.0 mi North - - N/A   Clear
6:55 PM 60.8 °F 53.6 °F 77% 30.08 in 10.0 mi North - - N/A   Clear
7:15 PM 60.8 °F 53.6 °F 77% 30.09 in 10.0 mi North - - N/A   Clear
7:35 PM 59.0 °F 53.6 °F 82% 30.09 in 10.0 mi North - - N/A   Clear
7:55 PM 59.0 °F 51.8 °F 77% 30.09 in 10.0 mi North - - N/A   Clear
8:15 PM 59.0 °F 51.8 °F 77% 30.10 in 10.0 mi North - - N/A   Clear
8:35 PM 59.0 °F 51.8 °F 77% 30.09 in 10.0 mi North - - N/A   Clear
8:55 PM 57.2 °F 51.8 °F 82% 30.09 in 10.0 mi North - - N/A   Clear
9:15 PM 59.0 °F 51.8 °F 77% 30.09 in 10.0 mi North - - N/A   Clear
9:35 PM 62.6 °F 53.6 °F 72% 30.09 in 10.0 mi North - - N/A   Clear
9:55 PM 62.6 °F 53.6 °F 72% 30.09 in 10.0 mi North - - N/A   Clear
10:15 PM 64.4 °F 53.6 °F 68% 30.09 in 10.0 mi North - - N/A   Clear
10:35 PM 62.6 °F 53.6 °F 72% 30.09 in 10.0 mi North - - N/A   Clear
10:55 PM 59.0 °F 53.6 °F 82% 30.09 in 10.0 mi North - - N/A   Clear